LiveATC.Net - Listen to live air traffic control over the Internet!

Find LiveATC Audio Streams


Airport/ARTCC Code

Frequency Search
(e.g., 124.400, 128.75)
Site-wide search
 


Browse LiveATC Feeds
Top 50 LiveATC Feeds
LiveATC Feed Map
Bad Weather Areas

LiveATC FAQ
Offer LiveATC feed
Contact LiveATC.net
Press Inquiries

LiveATC on iPhone
LiveATC on Android

Windows Phone
Windows 8/10

LiveATC Mobile
(Mobile browser)

ATC Audio Archives
Interesting Recordings

LiveATC Forums

Home Page
About LiveATC.net
Make a Donation
Terms of Use
Privacy Policy

Canadian Air Freqs

AIRMETs/SIGMETs

FAA Airport Status
Nat'l Airspace Status
Arrival Demand Charts


Server Software By:
Icecast.org
Liquidsoap

Select an area of interest:
U.S. Feeds: Class B Airports | Class C Airports | Class D/Other Airports | ARTCC (Centers)
International Feeds: Canada | Europe | Oceania | Asia | South America | North/Central America | Africa
Misc Feeds: HF Feeds
Search by ICAO/IATA airport code:   (e.g., kbos, kjfk, lax, eham, etc.)


Currently Available Live Feeds: 2400
Status Updated: Sun Jun 16 2019 13:58:01 UTC


NOTICE

Unauthorized use prohibited. See LiveATC.net Terms of Service

Oceania/Pacific Airport Feeds

 

HF CWP1/2
Cairns, Queensland, Australia

Feed Status: DOWN
Offline since: 2019-06-06 23:40:02 UTC

CWP: 11.384
CWP: 8.903
CWP: 4.666
CWP/SP: 13.261
CWP/SP: 17.904
CWP/SP: 21.985

Notes:
HF CWP1/2 (Central West Pacific) Japan to Honolulu and Australia to New Zealand

Frequencies Monitored:
3467, 4666, 5643, 5655, 6556, 8867, 8879, 8903, 11384, 13261, 13300, 13306, 17904, 21985

Stations:
San Francisco, Tokyo, Manila, Singapore, Brisbane, Auckland, Nadi and Tahiti.

Frequency Schedule: hfcwp.yolasite.com

YADG CTAF (Archives)
Sellicks Hill, South Australia, Australia

Feed Status: UP
Listen in your browser - HTML5 player(in browser, HTML5)
Click here to listen with your own player(launches your MP3 player)

YADG Flight Activity (Flightaware)

Listeners: 0 out of 1070 total

Aldinga CTAF: 127.150

YBAF Gnd/Twr #2 (Archives)
Brisbane, Queensland, Australia

Feed Status: UP
Listen in your browser - HTML5 player(in browser, HTML5)
Click here to listen with your own player(launches your MP3 player)

YBAF Flight Activity (Flightaware)

Listeners: 0 out of 1070 total

Brisbane Ground: 119.900
Brisbane Tower (North): 123.600
Brisbane Tower/CTAF (South): 118.100

YBAS Tower/Center (Archives)
Alice Springs, Northern Territory, Australia

Feed Status: UP
Listen in your browser - HTML5 player(in browser, HTML5)
Click here to listen with your own player(launches your MP3 player)

YBAS 161300Z AUTO 11004KT 9999 // NCD 10/03 Q1024

YBAS Flight Activity (Flightaware)

Listeners: 0 out of 1070 total

Alice Tower/CTAF: 118.300
Melbourne Center (above FL280): 128.850
Melbourne Center (below FL280): 119.800

Alice Springs Aircraft Movements

YBBN Brisbane Center (Archives)
Brisbane, Queensland, Australia

Feed Status: UP
Listen in your browser - HTML5 player(in browser, HTML5)
Click here to listen with your own player(launches your MP3 player)

YBBN 161323Z 30005KT 290V010 9999 FEW005 SCT009 BKN100 17/16 Q1017

YBBN Flight Activity (Flightaware)

Listeners: 1 out of 1070 total

Brisbane Center (North): 123.000
Brisbane Center (Southwest): 128.150
Brisbane Centre (High): 134.300
Brisbane Centre (South): 130.400
Brisbane Oceanic Center: 132.850

YBBN Gnd/Twr/App/Dep (Archives)
Brisbane, Queensland, Australia

Feed Status: UP
Listen in your browser - HTML5 player(in browser, HTML5)
Click here to listen with your own player(launches your MP3 player)

YBBN 161323Z 30005KT 290V010 9999 FEW005 SCT009 BKN100 17/16 Q1017

YBBN Flight Activity (Flightaware)

Listeners: 4 out of 1070 total

Approach: 123.500
Brisbane Approach: 124.700
Brisbane Approach/Departure: 125.600
Brisbane Departure: 128.300
Brisbane Ground: 121.700
Brisbane Tower: 120.500

YBCG Approach (Archives)
Gold Coast City, Queensland, Australia

Feed Status: UP
Listen in your browser - HTML5 player(in browser, HTML5)
Click here to listen with your own player(launches your MP3 player)

YBCG 161300Z AUTO 26004KT 170V270 9999 // OVC085 17/16 Q1016

YBCG Flight Activity (Flightaware)

Listeners: 0 out of 1070 total

Brisbane Approach: 123.500

YBCG Area CTAF (Archives)
Gold Coast City, Queensland, Australia

Feed Status: UP
Listen in your browser - HTML5 player(in browser, HTML5)
Click here to listen with your own player(launches your MP3 player)

YBCG 161300Z AUTO 26004KT 170V270 9999 // OVC085 17/16 Q1016

YBCG Flight Activity (Flightaware)

Listeners: 0 out of 1070 total

Gold Coast Area CTAF: 126.700

YBCG Brisbane Centre (Archives)
Gold Coast City, Queensland, Australia

Feed Status: UP
Listen in your browser - HTML5 player(in browser, HTML5)
Click here to listen with your own player(launches your MP3 player)

YBCG 161300Z AUTO 26004KT 170V270 9999 // OVC085 17/16 Q1016

YBCG Flight Activity (Flightaware)

Listeners: 0 out of 1070 total

Brisbane Centre/Radar: 119.500

YBCG Ground (Archives)
Gold Coast City, Queensland, Australia

Feed Status: UP
Listen in your browser - HTML5 player(in browser, HTML5)
Click here to listen with your own player(launches your MP3 player)

YBCG 161300Z AUTO 26004KT 170V270 9999 // OVC085 17/16 Q1016

YBCG Flight Activity (Flightaware)

Listeners: 0 out of 1070 total

Gold Coast Ground: 121.800

YBCG Ground/Tower (Archives)
Gold Coast City, Queensland, Australia

Feed Status: UP
Listen in your browser - HTML5 player(in browser, HTML5)
Click here to listen with your own player(launches your MP3 player)

YBCG 161300Z AUTO 26004KT 170V270 9999 // OVC085 17/16 Q1016

YBCG Flight Activity (Flightaware)

Listeners: 0 out of 1070 total

Gold Coast Ground: 121.800
Gold Coast Tower: 118.700

YBCG Tower (Archives)
Gold Coast City, Queensland, Australia

Feed Status: UP
Listen in your browser - HTML5 player(in browser, HTML5)
Click here to listen with your own player(launches your MP3 player)

YBCG 161300Z AUTO 26004KT 170V270 9999 // OVC085 17/16 Q1016

YBCG Flight Activity (Flightaware)

Listeners: 0 out of 1070 total

Gold Coast Tower: 118.700

YBCS App/Dep #1 (Archives)
Cairns, Queensland, Australia

Feed Status: UP
Listen in your browser - HTML5 player(in browser, HTML5)
Click here to listen with your own player(launches your MP3 player)

YBCS 161300Z AUTO 14004KT 110V210 9999 // OVC073 22/18 Q1016 FM1300 16008KT 9999 FEW030 OVC060

YBCS Flight Activity (Flightaware)

Listeners: 0 out of 1070 total

Cairns Approach/Departure: 118.400

YBCS App/Dep #2 (Archives)
Cairns, Queensland, Australia

Feed Status: UP
Listen in your browser - HTML5 player(in browser, HTML5)
Click here to listen with your own player(launches your MP3 player)

YBCS 161300Z AUTO 14004KT 110V210 9999 // OVC073 22/18 Q1016 FM1300 16008KT 9999 FEW030 OVC060

YBCS Flight Activity (Flightaware)

Listeners: 0 out of 1070 total

Cairns Approach/Departure: 126.100

YBCS App/Dep (all) (Archives)
Cairns, Queensland, Australia

Feed Status: UP
Listen in your browser - HTML5 player(in browser, HTML5)
Click here to listen with your own player(launches your MP3 player)

YBCS 161300Z AUTO 14004KT 110V210 9999 // OVC073 22/18 Q1016 FM1300 16008KT 9999 FEW030 OVC060

YBCS Flight Activity (Flightaware)

Listeners: 0 out of 1070 total

Cairns Approach/Departure: 126.100
Cairns Approach/Departure: 118.400

YBCS Brisbane Centre (Archives)
Cairns, Queensland, Australia

Feed Status: UP
Listen in your browser - HTML5 player(in browser, HTML5)
Click here to listen with your own player(launches your MP3 player)

YBCS 161300Z AUTO 14004KT 110V210 9999 // OVC073 22/18 Q1016 FM1300 16008KT 9999 FEW030 OVC060

YBCS Flight Activity (Flightaware)

Listeners: 0 out of 1070 total

Brisbane Centre: 121.200

YBCS Emergency/Guard (Archives)
Cairns, Queensland, Australia

Feed Status: UP
Listen in your browser - HTML5 player(in browser, HTML5)
Click here to listen with your own player(launches your MP3 player)

YBCS 161300Z AUTO 14004KT 110V210 9999 // OVC073 22/18 Q1016 FM1300 16008KT 9999 FEW030 OVC060

YBCS Flight Activity (Flightaware)

Listeners: 0 out of 1070 total

Emergency/Guard: 121.500

YBCS Ground (Archives)
Cairns, Queensland, Australia

Feed Status: UP
Listen in your browser - HTML5 player(in browser, HTML5)
Click here to listen with your own player(launches your MP3 player)

YBCS 161300Z AUTO 14004KT 110V210 9999 // OVC073 22/18 Q1016 FM1300 16008KT 9999 FEW030 OVC060

YBCS Flight Activity (Flightaware)

Listeners: 0 out of 1070 total

Cairns Ground: 121.700

YBCS Ground/Tower (Archives)
Cairns, Queensland, Australia

Feed Status: UP
Listen in your browser - HTML5 player(in browser, HTML5)
Click here to listen with your own player(launches your MP3 player)

YBCS 161300Z AUTO 14004KT 110V210 9999 // OVC073 22/18 Q1016 FM1300 16008KT 9999 FEW030 OVC060

YBCS Flight Activity (Flightaware)

Listeners: 0 out of 1070 total

Cairns Ground: 121.700
Cairns Tower: 124.900

YBCS Tower (Archives)
Cairns, Queensland, Australia

Feed Status: UP
Listen in your browser - HTML5 player(in browser, HTML5)
Click here to listen with your own player(launches your MP3 player)

YBCS 161300Z AUTO 14004KT 110V210 9999 // OVC073 22/18 Q1016 FM1300 16008KT 9999 FEW030 OVC060

YBCS Flight Activity (Flightaware)

Listeners: 0 out of 1070 total

Cairns Tower: 124.900

YBCV CTAF/Brisbane Center (Archives)
Charleville, Queensland, Australia

Feed Status: UP
Listen in your browser - HTML5 player(in browser, HTML5)
Click here to listen with your own player(launches your MP3 player)

YBCV 161300Z AUTO 17007KT 9999 // NCD 12/02 Q1021

YBCV Flight Activity (Flightaware)

Listeners: 0 out of 1070 total

Brisbane Center: 124.800
Charleville CTAF/UNICOM: 126.700

YBOK Del/Gnd/Twr/App (Archives)
Oakey, Queensland, Australia

Feed Status: UP
Listen in your browser - HTML5 player(in browser, HTML5)
Click here to listen with your own player(launches your MP3 player)

YBOK Flight Activity (Flightaware)

Listeners: 0 out of 1070 total

Brisbane Center/FSS: 121.200
Oakey Approach: 125.400
Oakey Approach: 123.700
Oakey Approach (Final): 135.850
Oakey Clearance Delivery: 133.350
Oakey CTAF (+YTWB/YBWW): 127.650
Oakey Ground: 121.900
Oakey Tower: 120.100

YBTL Approach/Departure (Archives)
Townsville, Queensland, Australia

Feed Status: UP
Listen in your browser - HTML5 player(in browser, HTML5)
Click here to listen with your own player(launches your MP3 player)

YBTL 161300Z AUTO 13003KT 9999 // NCD 21/19 Q1017

YBTL Flight Activity (Flightaware)

Listeners: 0 out of 1070 total

Townsville Approach/Departure: 126.800

YBTL ATIS (Archives)
Townsville, Queensland, Australia

Feed Status: UP
Listen in your browser - HTML5 player(in browser, HTML5)
Click here to listen with your own player(launches your MP3 player)

YBTL 161300Z AUTO 13003KT 9999 // NCD 21/19 Q1017

YBTL Flight Activity (Flightaware)

Listeners: 0 out of 1070 total

Townsville ATIS: 133.500

YBTL Brisbane Center (Archives)
Townsville, Queensland, Australia

Feed Status: UP
Listen in your browser - HTML5 player(in browser, HTML5)
Click here to listen with your own player(launches your MP3 player)

YBTL 161300Z AUTO 13003KT 9999 // NCD 21/19 Q1017

YBTL Flight Activity (Flightaware)

Listeners: 0 out of 1070 total

Brisbane Center: 120.550

YBTL Clearance Delivery (Archives)
Townsville, Queensland, Australia

Feed Status: UP
Listen in your browser - HTML5 player(in browser, HTML5)
Click here to listen with your own player(launches your MP3 player)

YBTL 161300Z AUTO 13003KT 9999 // NCD 21/19 Q1017

YBTL Flight Activity (Flightaware)

Listeners: 0 out of 1070 total

Townsville Clearance Delivery: 128.100

YBTL Ground (Archives)
Townsville, Queensland, Australia

Feed Status: UP
Listen in your browser - HTML5 player(in browser, HTML5)
Click here to listen with your own player(launches your MP3 player)

YBTL 161300Z AUTO 13003KT 9999 // NCD 21/19 Q1017

YBTL Flight Activity (Flightaware)

Listeners: 0 out of 1070 total

Townsville Ground: 119.450

YBTL Tower (Archives)
Townsville, Queensland, Australia

Feed Status: UP
Listen in your browser - HTML5 player(in browser, HTML5)
Click here to listen with your own player(launches your MP3 player)

YBTL 161300Z AUTO 13003KT 9999 // NCD 21/19 Q1017

YBTL Flight Activity (Flightaware)

Listeners: 0 out of 1070 total

Townsville Tower: 118.300

YGAW CTAF (Archives)
Gawler, South Australia, Australia

Feed Status: UP
Listen in your browser - HTML5 player(in browser, HTML5)
Click here to listen with your own player(launches your MP3 player)

METAR NOT AVAILABLE

YGAW Flight Activity (Flightaware)

Listeners: 0 out of 1070 total

Gawler CTAF: 126.550

YGLA CTAF (Archives)
Gladstone, Queensland, Australia

Feed Status: UP
Listen in your browser - HTML5 player(in browser, HTML5)
Click here to listen with your own player(launches your MP3 player)

YGLA 161300Z AUTO 21004KT 9999 // NCD 18/16 Q1017 RF00.0/000.2

YGLA Flight Activity (Flightaware)

Listeners: 0 out of 1070 total

Gladstone CTF/Multicom: 118.800

YMML/YMMB/YMEN
Essendon, Victoria, Australia

Feed Status: DOWN
Offline since: 2019-04-07 02:19:02 UTC

YMML 161300Z 36010KT 9999 FEW042 08/06 Q1023

Air Ambulance: 132.750
Air Ambulance: 122.075
DSE & Other Company: 119.100
Essendon Tower: 125.100
Inter-Pilot: 123.450
Jetstar Company: 130.925
Melbourne ACD: 127.200
Melbourne Approach: 132.000
Melbourne Centre: 125.200
Melbourne Centre: 125.800
Melbourne Centre: 130.300
Melbourne Centre: 128.500
Melbourne Centre: 125.700
Melbourne Centre: 122.400
Melbourne Centre: 126.800
Melbourne Centre: 123.750
Melbourne Departure: 129.400
Melbourne Departure: 118.900
Melbourne Radar: 135.700
Melbourne Tower: 120.500
Moorabbin Tower (East): 118.100
Moorabbin Tower (West): 123.000
Police Air Wing: 131.600
Qantas Company: 130.850
Qantas Company: 129.500
Rex Company: 126.450
Royal Victorian Aero Club Company: 128.700
Royal Victorian Aero Club Company: 133.400
Virgin Blue Company: 131.500
Yarra Bank Heliport CTAF: 132.100

YMHB Gnd/Twr/Centre (Archives)
Cambridge, Tasmania, Australia

Feed Status: UP
Listen in your browser - HTML5 player(in browser, HTML5)
Click here to listen with your own player(launches your MP3 player)

YMHB 161300Z 34006KT 9999 FEW045 05/03 Q1021

YMHB Flight Activity (Flightaware)

Listeners: 0 out of 1070 total

Hobart Ground: 121.700
Hobart Tower: 118.100
Melbourne Centre: 125.550

YMIA CTAF/Melbourne Center (Archives)
Mildura, Victoria, Australia

Feed Status: UP
Listen in your browser - HTML5 player(in browser, HTML5)
Click here to listen with your own player(launches your MP3 player)

YMIA 161300Z AUTO 36003KT 9999 // NCD 07/07 Q1024

YMIA Flight Activity (Flightaware)

Listeners: 0 out of 1070 total

Melbourne Center: 112.100
Melbourne Center: 132.600
Mildura CTAF: 118.800

YMML/YMMB/YMEN
Mentone, Victoria, Australia

Feed Status: DOWN
Offline since: 2019-04-07 02:19:02 UTC

YMML 161300Z 36010KT 9999 FEW042 08/06 Q1023

Air Ambulance: 132.750
Air Ambulance: 122.075
DSE & Other Company: 119.100
Essendon Tower: 125.100
Inter-Pilot: 123.450
Jetstar Company: 130.925
Melbourne ACD: 127.200
Melbourne Approach: 132.000
Melbourne Centre: 125.200
Melbourne Centre: 125.800
Melbourne Centre: 130.300
Melbourne Centre: 128.500
Melbourne Centre: 125.700
Melbourne Centre: 122.400
Melbourne Centre: 126.800
Melbourne Centre: 123.750
Melbourne Departure: 129.400
Melbourne Departure: 118.900
Melbourne Radar: 135.700
Melbourne Tower: 120.500
Moorabbin Tower (East): 118.100
Moorabbin Tower (West): 123.000
Police Air Wing: 131.600
Qantas Company: 130.850
Qantas Company: 129.500
Rex Company: 126.450
Royal Victorian Aero Club Company: 128.700
Royal Victorian Aero Club Company: 133.400
Virgin Blue Company: 131.500
Yarra Bank Heliport CTAF: 132.100

YPAD Del/Gnd/Twr/App (Archives)
Adelaide, South Australia, Australia

Feed Status: UP
Listen in your browser - HTML5 player(in browser, HTML5)
Click here to listen with your own player(launches your MP3 player)

YPAD 161300Z 02007KT CAVOK 10/07 Q1023 NOSIG

YPAD Flight Activity (Flightaware)

Listeners: 0 out of 1070 total

Adelaide Approach (East of Adelaide): 118.200
Adelaide Approach (East of Adelaide): 130.450
Adelaide Approach (Kangaroo Island): 123.050
Adelaide Approach (North of Adelaide): 128.600
Adelaide Approach (West of Adelaide): 124.200
Adelaide Clearance Delivery: 126.100
Adelaide Ground: 121.700
Adelaide Tower: 120.500

YPAD Gnd/Twr/App/Center (Archives)
Adelaide, South Australia, Australia

Feed Status: UP
Listen in your browser - HTML5 player(in browser, HTML5)
Click here to listen with your own player(launches your MP3 player)

YPAD 161300Z 02007KT CAVOK 10/07 Q1023 NOSIG

YPAD Flight Activity (Flightaware)

Listeners: 0 out of 1070 total

Adelaide Approach (East of Adelaide): 118.200
Adelaide Approach (East of Adelaide): 130.450
Adelaide Approach (Kangaroo Island): 123.050
Adelaide Approach (North of Adelaide): 128.600
Adelaide Approach (West of Adelaide): 124.200
Adelaide Clearance Delivery: 126.100
Adelaide Ground: 121.700
Adelaide Tower: 120.500
Flight Watch: 135.750
Melbourne Centre: 124.300
Melbourne Centre ( East of Adelaide): 125.300
Melbourne Centre ( Pt Augusta, Pt Pirie, Whyalla): 123.900
Melbourne Centre (Mildura): 122.100
Melbourne Centre (North of Adelaide): 122.400
Melbourne Centre (Pt Lincoln): 125.900
Melbourne Centre (West of Adelaide ): 127.050

YPDN Gnd/Twr/App/Dep (Archives)
Darwin, Northern Territory, Australia

Feed Status: UP
Listen in your browser - HTML5 player(in browser, HTML5)
Click here to listen with your own player(launches your MP3 player)

YPDN 161300Z 19004KT CAVOK 24/22 Q1014

YPDN Flight Activity (Flightaware)

Listeners: 1 out of 1070 total

Darwin Approach: 134.100
Darwin Arrival: 125.200
Darwin Departure: 119.550
Darwin Ground: 121.800
Darwin Tower: 133.100

YPJT Gnd/Twr
Perth, Western Australia, Australia

Feed Status: DOWN
Offline since: 2019-06-16 13:56:02 UTC

YPJT 161300Z AUTO 00000KT 9999 // NCD 10/09 Q1027 RF00.0/000.0

Jandakot Ground: 124.300
Jandakot Tower: 119.400
Jandakot Tower/CTAF: 118.100

YPMQ CTAF (Archives)
Port Macquarie, New South Wales, Australia

Feed Status: UP
Listen in your browser - HTML5 player(in browser, HTML5)
Click here to listen with your own player(launches your MP3 player)

YPMQ Flight Activity (Flightaware)

Listeners: 0 out of 1070 total

Port Macquarie CTAF/Multicom: 118.100

YPPF Ground (Archives)
Parafield, South Australia, Australia

Feed Status: UP
Listen in your browser - HTML5 player(in browser, HTML5)
Click here to listen with your own player(launches your MP3 player)

YPPF Flight Activity (Flightaware)

Listeners: 0 out of 1070 total

Parafield Ground: 119.900

YPPF Tower #1 (Archives)
Parafield, South Australia, Australia

Feed Status: UP
Listen in your browser - HTML5 player(in browser, HTML5)
Click here to listen with your own player(launches your MP3 player)

YPPF Flight Activity (Flightaware)

Listeners: 0 out of 1070 total

Parafield Tower: 118.700

YPPF Tower #2 (Archives)
Parafield, South Australia, Australia

Feed Status: UP
Listen in your browser - HTML5 player(in browser, HTML5)
Click here to listen with your own player(launches your MP3 player)

YPPF Flight Activity (Flightaware)

Listeners: 0 out of 1070 total

Parafield Tower: 124.600

YPPH Approach (Archives)
Perth, Western Australia, Australia

Feed Status: UP
Listen in your browser - HTML5 player(in browser, HTML5)
Click here to listen with your own player(launches your MP3 player)

YPPH 161300Z 02003KT 9999 SCT046 10/09 Q1027 NOSIG

YPPH Flight Activity (Flightaware)

Listeners: 0 out of 1070 total

Perth Approach: 123.600

YPPH Departure (Archives)
Perth, Western Australia, Australia

Feed Status: UP
Listen in your browser - HTML5 player(in browser, HTML5)
Click here to listen with your own player(launches your MP3 player)

YPPH 161300Z 02003KT 9999 SCT046 10/09 Q1027 NOSIG

YPPH Flight Activity (Flightaware)

Listeners: 0 out of 1070 total

Perth Departure: 118.700

YPPH Ground (Archives)
Perth, Western Australia, Australia

Feed Status: UP
Listen in your browser - HTML5 player(in browser, HTML5)
Click here to listen with your own player(launches your MP3 player)

YPPH 161300Z 02003KT 9999 SCT046 10/09 Q1027 NOSIG

YPPH Flight Activity (Flightaware)

Listeners: 0 out of 1070 total

Perth Ground: 121.700

YPPH Tower (Archives)
Perth, Western Australia, Australia

Feed Status: UP
Listen in your browser - HTML5 player(in browser, HTML5)
Click here to listen with your own player(launches your MP3 player)

YPPH 161300Z 02003KT 9999 SCT046 10/09 Q1027 NOSIG

YPPH Flight Activity (Flightaware)

Listeners: 0 out of 1070 total

Perth Tower: 127.400

YRYW 122.5
Raywood, Victoria, Australia

Feed Status: DOWN
Offline since: 2019-06-16 00:34:02 UTC

METAR NOT AVAILABLE


YRYW 122.7
Raywood, Victoria, Australia

Feed Status: DOWN
Offline since: 2019-06-16 00:34:02 UTC

METAR NOT AVAILABLE


YRYW 122.9
Raywood, Victoria, Australia

Feed Status: DOWN
Offline since: 2019-06-16 00:34:02 UTC

METAR NOT AVAILABLE


YRYW CTAF
Raywood, Victoria, Australia

Feed Status: DOWN
Offline since: 2019-06-16 00:35:03 UTC

METAR NOT AVAILABLE

Raywood CTAF: 126.700

YSBK ATIS (Archives)
Bankstown, New South Wales, Australia

Feed Status: UP
Listen in your browser - HTML5 player(in browser, HTML5)
Click here to listen with your own player(launches your MP3 player)

YSBK Flight Activity (Flightaware)

Listeners: 0 out of 1070 total

Bankstown ATIS: 120.900

YSBK Tower (Archives)
Bankstown, New South Wales, Australia

Feed Status: UP
Listen in your browser - HTML5 player(in browser, HTML5)
Click here to listen with your own player(launches your MP3 player)

YSBK Flight Activity (Flightaware)

Listeners: 0 out of 1070 total

Bankstown Tower: 132.800

NOTE: Feed provided by Bryan Ford

YSCB App/Dep (Archives)
Canberra, Australian Capital Territory, Australia

Feed Status: UP
Listen in your browser - HTML5 player(in browser, HTML5)
Click here to listen with your own player(launches your MP3 player)

YSCB 161300Z AUTO 13004KT 9999 // NCD 05/05 Q1022

YSCB Flight Activity (Flightaware)

Listeners: 0 out of 1070 total

Canberra Approach/Departure: 124.500

YSCB App/Dep/Center (Archives)
Canberra, Australian Capital Territory, Australia

Feed Status: UP
Listen in your browser - HTML5 player(in browser, HTML5)
Click here to listen with your own player(launches your MP3 player)

YSCB 161300Z AUTO 13004KT 9999 // NCD 05/05 Q1022

YSCB Flight Activity (Flightaware)

Listeners: 0 out of 1070 total

Melbourne Center: 125.900

YSCB ATIS (Archives)
Canberra, Australian Capital Territory, Australia

Feed Status: UP
Listen in your browser - HTML5 player(in browser, HTML5)
Click here to listen with your own player(launches your MP3 player)

YSCB 161300Z AUTO 13004KT 9999 // NCD 05/05 Q1022

YSCB Flight Activity (Flightaware)

Listeners: 0 out of 1070 total

Canberra ATIS: 127.450

YSCB Ground/Tower (Archives)
Canberra, Australian Capital Territory, Australia

Feed Status: UP
Listen in your browser - HTML5 player(in browser, HTML5)
Click here to listen with your own player(launches your MP3 player)

YSCB 161300Z AUTO 13004KT 9999 // NCD 05/05 Q1022

YSCB Flight Activity (Flightaware)

Listeners: 0 out of 1070 total

Canberra Ground: 121.700
Canberra Tower: 118.700

YSCB Melbourne Center (Archives)
Canberra, Australian Capital Territory, Australia

Feed Status: UP
Listen in your browser - HTML5 player(in browser, HTML5)
Click here to listen with your own player(launches your MP3 player)

YSCB 161300Z AUTO 13004KT 9999 // NCD 05/05 Q1022

YSCB Flight Activity (Flightaware)

Listeners: 0 out of 1070 total

Melbourne Center: 128.400

YSCN Tower/CTAF (Archives)
Camden, New South Wales, Australia

Feed Status: UP
Listen in your browser - HTML5 player(in browser, HTML5)
Click here to listen with your own player(launches your MP3 player)

YSCN Flight Activity (Flightaware)

Listeners: 0 out of 1070 total

Camden Tower/CTAF: 120.100

YSNW Gnd/CTAF/App/Center (Archives)
Nowra, New South Wales, Australia

Feed Status: UP
Listen in your browser - HTML5 player(in browser, HTML5)
Click here to listen with your own player(launches your MP3 player)

YSNW 161300Z AUTO 22010KT 9999 // OVC074 11/11 Q1021

YSNW Flight Activity (Flightaware)

Listeners: 0 out of 1070 total

Enroute: 132.300
Nowra Approach: 123.500
Nowra CTAF: 118.850
Nowra Ground: 135.850

Australia - ATC Satellite Feed (Archives)
Sydney, New South Wales, Australia

Feed Status: UP
Listen in your browser - HTML5 player(in browser, HTML5)
Click here to listen with your own player(launches your MP3 player)


Listeners: 7 out of 1070 total

Brisbane Center: 123.400
Brisbane Center: 128.600
Melbourne Center: 133.500
Melbourne Center: 118.500
Sydney Departures: 118.400

YSSY Director (Archives)
Sydney, New South Wales, Australia

Feed Status: UP
Listen in your browser - HTML5 player(in browser, HTML5)
Click here to listen with your own player(launches your MP3 player)

YSSY 161300Z 21010KT 9999 VCSH FEW018 SCT060 14/12 Q1019

YSSY Flight Activity (Flightaware)

Listeners: 0 out of 1070 total

Sydney Director (East): 125.300
Sydney Director (West): 126.100

Note: Director provides radar vectoring from late downwind until established on final approach.

YSSY Tower (Archives)
Sydney, New South Wales, Australia

Feed Status: UP
Listen in your browser - HTML5 player(in browser, HTML5)
Click here to listen with your own player(launches your MP3 player)

YSSY 161300Z 21010KT 9999 VCSH FEW018 SCT060 14/12 Q1019

YSSY Flight Activity (Flightaware)

Listeners: 4 out of 1070 total

Sydney Tower (Rwy 16L/34R): 124.700
Sydney Tower (Rwy 16R/34L, Rwy 07/25): 120.500